EW6252 Weather Reports


time (UTC)temp
F
wind
direction
speed
knots
gust
knots
rain 1hr
in
rain 24hr
in
rain mn
in
humidity
%
barometer
mb
20260504150956 76 0.0 0.0 0.00 0.00 0.00 37 1013.9
20260504150221 75 0.0 0.0 0.00 0.00 0.00 34 1013.9
20260504141107 70 0.0 0.0 0.00 0.00 0.00 16 1013.9
20260504140605 70 0.0 0.0 0.00 0.00 0.00 16 1013.9
20260504130409 64 0.0 0.0 0.00 0.00 0.00 100 1013.8
20260504110531 60 0.0 0.0 0.00 0.00 0.00 100 1013.4
20260504081723 61 0.0 0.0 0.00 0.00 0.00 100 1014.5
20260504081204 61 0.0 0.0 0.00 0.00 0.00 100 1014.8
20260504080654 61 0.0 0.0 0.00 0.00 0.00 100 1014.8
20260504080133 61 0.0 0.0 0.00 0.00 0.00 100 1014.8
20260504060151 63 0.0 0.0 0.00 0.00 0.00 23 1016.1
20260504050439 64 0.0 0.0 0.00 0.00 0.00 39 1016.7
20260504045933 64 0.0 0.0 0.00 0.00 0.00 41 1016.7
20260504045431 65 0.0 0.0 0.00 0.00 0.00 42 1016.8
20260504045151 65 0.0 0.0 0.00 0.00 0.00 43 1016.8
20260504044348 65 0.0 0.0 0.00 0.00 0.00 43 1016.8
20260504043831 65 0.0 0.0 0.00 0.00 0.00 44 1016.8
20260504043550 65 0.0 0.0 0.00 0.00 0.00 44 1016.8
20260504042821 65 0.0 0.0 0.00 0.00 0.00 46 1016.9
20260504042258 65 0.0 0.0 0.00 0.00 0.00 47 1016.9
20260504041738 65 0.0 0.0 0.00 0.00 0.00 48 1016.9
20260504041239 66 0.0 0.0 0.00 0.00 0.00 48 1016.9
20260504040727 66 0.0 0.0 0.00 0.00 0.00 49 1016.9
20260504040221 66 0.0 0.0 0.00 0.00 0.00 50 1016.9
20260504035647 66 0.0 0.0 0.00 0.00 0.00 51 1016.8
20260504035128 66 0.0 0.0 0.00 0.00 0.00 51 1016.8
20260504034619 67 0.0 0.0 0.00 0.00 0.00 52 1016.8
20260504034118 67 0.0 0.0 0.00 0.00 0.00 52 1016.9
20260504033528 67 0.0 0.0 0.00 0.00 0.00 53 1016.9
20260504032943 67 0.0 0.0 0.00 0.00 0.00 54 1016.9
20260504032702 67 0.0 0.0 0.00 0.00 0.00 54 1016.7
20260504031931 67 0.0 0.0 0.00 0.00 0.00 55 1016.7
20260504031408 67 0.0 0.0 0.00 0.00 0.00 55 1016.7
20260504030902 68 0.0 0.0 0.00 0.00 0.00 55 1016.5
20260504030334 68 0.0 0.0 0.00 0.00 0.00 55 1016.5
20260504025819 68 0.0 0.0 0.00 0.00 0.00 56 1016.7
20260504025540 68 0.0 0.0 0.00 0.00 0.00 56 1016.7
20260504024801 68 0.0 0.0 0.00 0.00 0.00 56 1016.7
20260504024504 69 0.0 0.0 0.00 0.00 0.00 56 1016.5
20260504023729 69 0.0 0.0 0.00 0.00 0.00 56 1016.5
20260504023229 69 0.0 0.0 0.00 0.00 0.00 56 1016.5
20260504022726 69 0.0 0.0 0.00 0.00 0.00 57 1016.4
20260504022228 69 0.0 0.0 0.00 0.00 0.00 57 1016.4
20260504021719 70 0.0 0.0 0.00 0.00 0.00 57 1016.4
20260504021216 70 0.0 0.0 0.00 0.00 0.00 57 1016.4
20260504020650 70 0.0 0.0 0.00 0.00 0.00 57 1016.4
20260504020135 70 0.0 0.0 0.00 0.00 0.00 56 1016.4
20260504015627 71 0.0 0.0 0.00 0.00 0.00 56 1016.3
20260504015341 71 0.0 0.0 0.00 0.00 0.00 56 1016.3
20260504014553 71 0.0 0.0 0.00 0.00 0.00 56 1016.3
20260504014049 71 0.0 0.0 0.00 0.00 0.00 56 1016.3
20260504013539 71 0.0 0.0 0.00 0.00 0.00 55 1016.3
20260504013258 72 0.0 0.0 0.00 0.00 0.00 55 1016.3
20260504012512 72 0.0 0.0 0.00 0.00 0.00 55 1016.2
20260504012238 73 0.0 0.0 0.00 0.00 0.00 53 1016.2
20260504011453 73 0.0 0.0 0.00 0.00 0.00 53 1016.2
20260504010927 73 0.0 0.0 0.00 0.00 0.00 53 1016.2
20260504010430 74 0.0 0.0 0.00 0.00 0.00 52 1016.2
20260504005919 74 0.0 0.0 0.00 0.00 0.00 52 1016.2
20260504005353 74 0.0 0.0 0.00 0.00 0.00 51 1016.1
20260504004845 75 0.0 0.0 0.00 0.00 0.00 51 1016.1
20260504004602 75 0.0 0.0 0.00 0.00 0.00 50 1016.3
20260504003823 75 0.0 0.0 0.00 0.00 0.00 49 1016.3
20260504003323 76 0.0 0.0 0.00 0.00 0.00 48 1016.3
20260504002746 76 0.0 0.0 0.00 0.00 0.00 48 1016.1
20260504002245 76 0.0 0.0 0.00 0.00 0.00 47 1016.1
20260504001732 76 0.0 0.0 0.00 0.00 0.00 46 1016.1
20260504001231 77 0.0 0.0 0.00 0.00 0.00 46 1015.9
20260504000726 77 0.0 0.0 0.00 0.00 0.00 45 1015.9
20260504000159 77 0.0 0.0 0.00 0.00 0.00 45 1015.9
20260503235650 77 0.0 0.0 0.00 0.00 0.00 44 1016.1
20260503235142 78 0.0 0.0 0.00 0.00 0.00 43 1016.1
20260503234910 78 0.0 0.0 0.00 0.00 0.00 43 1016.1
20260503234133 78 0.0 0.0 0.00 0.00 0.00 42 1016.3
20260503233120 79 0.0 0.0 0.00 0.00 0.00 42 1016.3
20260503232606 79 0.0 0.0 0.00 0.00 0.00 43 1016.4
20260503232027 79 0.0 0.0 0.00 0.00 0.00 42 1016.4
20260503231514 79 0.0 0.0 0.00 0.00 0.00 41 1016.4
20260503230957 79 0.0 0.0 0.00 0.00 0.00 42 1016.4
20260503230424 80 0.0 0.0 0.00 0.00 0.00 42 1016.4
20260503225909 80 0.0 0.0 0.00 0.00 0.00 42 1016.4
20260503225346 80 0.0 0.0 0.00 0.00 0.00 42 1016.4
20260503224843 80 0.0 0.0 0.00 0.00 0.00 41 1016.4
20260503224344 80 0.0 0.0 0.00 0.00 0.00 41 1016.4
20260503223842 81 0.0 0.0 0.00 0.00 0.00 40 1016.7
20260503223335 81 0.0 0.0 0.00 0.00 0.00 39 1016.7
20260503222829 82 0.0 0.0 0.00 0.00 0.00 38 1016.7
20260503222600 81 0.0 0.0 0.00 0.00 0.00 37 1016.9
20260503221826 81 0.0 0.0 0.00 0.00 0.00 39 1016.9
20260503221323 81 0.0 0.0 0.00 0.00 0.00 39 1016.9
20260503220815 81 0.0 0.0 0.00 0.00 0.00 39 1016.9
20260503220311 81 0.0 0.0 0.00 0.00 0.00 39 1016.9
20260503215740 81 0.0 0.0 0.00 0.00 0.00 38 1017.0
20260503215231 81 0.0 0.0 0.00 0.00 0.00 37 1017.0
20260503215000 81 0.0 0.0 0.00 0.00 0.00 39 1017.0
20260503214225 80 0.0 0.0 0.00 0.00 0.00 37 1017.4
20260503213223 81 0.0 0.0 0.00 0.00 0.00 36 1017.4
20260503212711 81 0.0 0.0 0.00 0.00 0.00 37 1017.5
20260503212429 81 0.0 0.0 0.00 0.00 0.00 34 1017.5
20260503211659 81 0.0 0.0 0.00 0.00 0.00 34 1017.5
20260503211420 81 0.0 0.0 0.00 0.00 0.00 36 1017.8
20260503210626 82 0.0 0.0 0.00 0.00 0.00 34 1017.8
20260503210125 82 0.0 0.0 0.00 0.00 0.00 34 1017.8
20260503205626 81 0.0 0.0 0.00 0.00 0.00 34 1018.0
20260503205100 82 0.0 0.0 0.00 0.00 0.00 33 1018.0
20260503204600 81 0.0 0.0 0.00 0.00 0.00 36 1018.0
20260503204040 81 0.0 0.0 0.00 0.00 0.00 34 1018.2
20260503203530 81 0.0 0.0 0.00 0.00 0.00 36 1018.2
20260503203028 81 0.0 0.0 0.00 0.00 0.00 37 1018.2
20260503202457 81 0.0 0.0 0.00 0.00 0.00 36 1018.5
20260503201952 81 0.0 0.0 0.00 0.00 0.00 37 1018.5
20260503201427 81 0.0 0.0 0.00 0.00 0.00 38 1018.5
20260503200923 81 0.0 0.0 0.00 0.00 0.00 37 1018.8
20260503200654 81 0.0 0.0 0.00 0.00 0.00 39 1018.8
20260503195904 80 0.0 0.0 0.00 0.00 0.00 37 1018.8
20260503195344 80 0.0 0.0 0.00 0.00 0.00 36 1018.9
20260503194831 81 0.0 0.0 0.00 0.00 0.00 35 1018.9
20260503194330 82 0.0 0.0 0.00 0.00 0.00 37 1019.0
20260503193828 81 0.0 0.0 0.00 0.00 0.00 37 1019.0
20260503193326 80 0.0 0.0 0.00 0.00 0.00 39 1019.0
20260503192825 79 0.0 0.0 0.00 0.00 0.00 39 1019.2
20260503192312 79 0.0 0.0 0.00 0.00 0.00 42 1019.2
20260503191811 79 0.0 0.0 0.00 0.00 0.00 40 1019.2
20260503191311 79 0.0 0.0 0.00 0.00 0.00 38 1019.5
20260503190805 79 0.0 0.0 0.00 0.00 0.00 40 1019.5
20260503190257 79 0.0 0.0 0.00 0.00 0.00 40 1019.5
20260503185747 80 0.0 0.0 0.00 0.00 0.00 38 1019.7
20260503185241 80 0.0 0.0 0.00 0.00 0.00 40 1019.7
20260503184731 80 0.0 0.0 0.00 0.00 0.00 40 1019.7
20260503184214 80 0.0 0.0 0.00 0.00 0.00 39 1020.0
20260503183638 80 0.0 0.0 0.00 0.00 0.00 39 1020.0
20260503183124 80 0.0 0.0 0.00 0.00 0.00 37 1020.0
20260503182553 80 0.0 0.0 0.00 0.00 0.00 37 1020.3
20260503181523 80 0.0 0.0 0.00 0.00 0.00 39 1020.3
20260503181024 79 0.0 0.0 0.00 0.00 0.00 38 1020.5
20260503180741 79 0.0 0.0 0.00 0.00 0.00 39 1020.5
20260503175956 79 0.0 0.0 0.00 0.00 0.00 38 1020.5
20260503175702 80 0.0 0.0 0.00 0.00 0.00 38 1020.6
20260503174929 80 0.0 0.0 0.00 0.00 0.00 40 1020.6
20260503174429 79 0.0 0.0 0.00 0.00 0.00 39 1020.6
20260503173927 79 0.0 0.0 0.00 0.00 0.00 38 1021.1
20260503173416 79 0.0 0.0 0.00 0.00 0.00 38 1021.1
20260503172556 79 0.0 0.0 0.00 0.00 0.00 40 1021.1
20260503172030 79 0.0 0.0 0.00 0.00 0.00 38 1021.1
20260503171525 79 0.0 0.0 0.00 0.00 0.00 40 1021.1
20260503171024 79 0.0 0.0 0.00 0.00 0.00 41 1021.1
20260503170516 79 0.0 0.0 0.00 0.00 0.00 39 1021.1
20260503170246 78 0.0 0.0 0.00 0.00 0.00 43 1021.1